Time,TemperatureF,DewpointF,PressureIn,WindDirection,WindDirectionDegrees,WindSpeedMPH,WindSpeedGustMPH,Humidity,HourlyPrecipIn,Conditions,Clouds,dailyrainin,SoftwareType,DateUTC
2013-10-20 00:00:00,66.9,63.9,29.93,ENE,63,0.0,1.0,90,0.00,,---,0.00,VWS V14.01,2013-10-20 04:00:00,
2013-10-20 00:01:00,66.9,63.9,29.92,ENE,63,0.0,0.0,90,0.00,,---,0.00,VWS V14.01,2013-10-20 04:01:00,
2013-10-20 00:02:00,66.9,63.9,29.92,ENE,63,0.0,0.0,90,0.00,,---,0.00,VWS V14.01,2013-10-20 04:02:00,
2013-10-20 00:07:00,66.8,63.8,29.92,ENE,63,0.0,0.0,90,0.00,,---,0.00,VWS V14.01,2013-10-20 04:07:00,
2013-10-20 00:12:00,66.7,63.7,29.91,ENE,63,0.0,1.0,90,0.00,,---,0.00,VWS V14.01,2013-10-20 04:12:00,
2013-10-20 00:17:00,66.7,63.7,29.92,ENE,63,0.0,1.0,90,0.00,,---,0.00,VWS V14.01,2013-10-20 04:17:00,
2013-10-20 00:22:00,66.7,63.7,29.91,ENE,63,0.0,1.0,90,0.00,,---,0.00,VWS V14.01,2013-10-20 04:22:00,
2013-10-20 00:28:00,66.7,63.7,29.92,ENE,63,0.0,1.0,90,0.00,,---,0.00,VWS V14.01,2013-10-20 04:28:00,
2013-10-20 00:30:00,66.6,63.6,29.92,ENE,63,0.0,1.0,90,0.00,,---,0.00,VWS V14.01,2013-10-20 04:30:00,
2013-10-20 00:33:00,66.6,63.6,29.92,ENE,63,0.0,1.0,90,0.00,,---,0.00,VWS V14.01,2013-10-20 04:33:00,
2013-10-20 00:38:00,66.5,63.2,29.92,ENE,63,0.0,1.0,89,0.00,,---,0.00,VWS V14.01,2013-10-20 04:38:00,
2013-10-20 00:43:00,66.4,63.1,29.92,ENE,63,0.0,1.0,89,0.00,,---,0.00,VWS V14.01,2013-10-20 04:43:00,
2013-10-20 00:48:00,66.4,63.1,29.92,ENE,63,0.0,1.0,89,0.00,,---,0.00,VWS V14.01,2013-10-20 04:48:00,
2013-10-20 00:53:00,66.3,63.0,29.92,ENE,63,0.0,1.0,89,0.00,,---,0.00,VWS V14.01,2013-10-20 04:53:00,
2013-10-20 00:58:00,66.2,62.9,29.92,ENE,63,0.0,1.0,89,0.00,,---,0.00,VWS V14.01,2013-10-20 04:58:00,
2013-10-20 01:00:00,66.2,62.9,29.92,ENE,63,0.0,1.0,89,0.00,,---,0.00,VWS V14.01,2013-10-20 05:00:00,
2013-10-20 01:03:00,66.2,62.9,29.92,ENE,63,0.0,1.0,89,0.00,,---,0.00,VWS V14.01,2013-10-20 05:03:00,
2013-10-20 01:08:00,66.1,62.8,29.92,ENE,63,0.0,1.0,89,0.00,,---,0.00,VWS V14.01,2013-10-20 05:08:00,
2013-10-20 01:13:00,66.1,62.5,29.92,ENE,63,0.0,1.0,88,0.00,,---,0.00,VWS V14.01,2013-10-20 05:13:00,
2013-10-20 01:18:00,66.0,62.3,29.92,ENE,63,0.0,1.0,88,0.00,,---,0.00,VWS V14.01,2013-10-20 05:18:00,
2013-10-20 01:23:00,65.9,62.2,29.92,ENE,63,0.0,1.0,88,0.00,,---,0.00,VWS V14.01,2013-10-20 05:23:00,
2013-10-20 01:28:00,65.8,62.2,29.92,ENE,63,0.0,1.0,88,0.00,,---,0.00,VWS V14.01,2013-10-20 05:28:00,
2013-10-20 01:30:00,65.8,62.2,29.92,ENE,63,0.0,1.0,88,0.00,,---,0.00,VWS V14.01,2013-10-20 05:30:00,
2013-10-20 01:33:00,65.8,61.8,29.92,ENE,63,0.0,0.0,87,0.00,,---,0.00,VWS V14.01,2013-10-20 05:33:00,
2013-10-20 01:38:00,65.6,61.3,29.92,SE,134,0.0,1.0,86,0.00,,---,0.00,VWS V14.01,2013-10-20 05:38:00,
2013-10-20 01:43:00,65.6,61.0,29.92,SE,133,0.0,1.0,85,0.00,,---,0.00,VWS V14.01,2013-10-20 05:43:00,
2013-10-20 01:48:00,65.5,60.5,29.92,SE,134,0.0,1.0,84,0.00,,---,0.00,VWS V14.01,2013-10-20 05:48:00,
2013-10-20 01:53:00,65.4,60.1,29.92,ENE,73,0.0,3.0,83,0.00,,---,0.00,VWS V14.01,2013-10-20 05:53:00,
2013-10-20 01:58:00,65.3,59.3,29.93,SSE,160,0.0,5.0,81,0.00,,---,0.00,VWS V14.01,2013-10-20 05:58:00,
2013-10-20 02:00:00,65.3,59.3,29.93,ESE,121,0.0,5.0,81,0.00,,---,0.00,VWS V14.01,2013-10-20 06:00:00,
2013-10-20 02:03:00,65.2,58.9,29.93,East,95,0.0,2.0,80,0.00,,---,0.00,VWS V14.01,2013-10-20 06:03:00,
2013-10-20 02:08:00,65.1,58.8,29.93,SSE,163,0.0,2.0,80,0.00,,---,0.00,VWS V14.01,2013-10-20 06:08:00,
2013-10-20 02:13:00,65.0,58.7,29.93,SE,128,0.0,2.0,80,0.00,,---,0.00,VWS V14.01,2013-10-20 06:13:00,
2013-10-20 02:18:00,64.9,58.6,29.93,ESE,121,0.0,2.0,80,0.00,,---,0.00,VWS V14.01,2013-10-20 06:18:00,
2013-10-20 02:23:00,64.7,58.0,29.93,ESE,122,0.0,3.0,79,0.00,,---,0.00,VWS V14.01,2013-10-20 06:23:00,
2013-10-20 02:28:00,64.4,58.1,29.92,SE,128,0.0,3.0,80,0.00,,---,0.00,VWS V14.01,2013-10-20 06:28:00,
2013-10-20 02:30:00,64.4,58.1,29.92,SE,128,0.0,3.0,80,0.00,,---,0.00,VWS V14.01,2013-10-20 06:30:00,
2013-10-20 02:33:00,64.1,57.8,29.93,East,96,0.0,4.0,80,0.00,,---,0.00,VWS V14.01,2013-10-20 06:33:00,
2013-10-20 02:38:00,63.9,57.6,29.93,ESE,104,0.0,4.0,80,0.00,,---,0.00,VWS V14.01,2013-10-20 06:38:00,
2013-10-20 02:43:00,63.7,57.4,29.93,ESE,103,0.0,4.0,80,0.00,,---,0.00,VWS V14.01,2013-10-20 06:43:00,
2013-10-20 02:48:00,63.6,57.3,29.93,East,94,0.0,4.0,80,0.00,,---,0.00,VWS V14.01,2013-10-20 06:48:00,
2013-10-20 02:53:00,63.6,57.7,29.93,East,86,0.0,4.0,81,0.00,,---,0.00,VWS V14.01,2013-10-20 06:53:00,
2013-10-20 02:58:00,63.4,57.5,29.93,East,92,0.0,4.0,81,0.00,,---,0.00,VWS V14.01,2013-10-20 06:58:00,
2013-10-20 03:00:00,63.4,57.5,29.93,East,92,0.0,4.0,81,0.00,,---,0.00,VWS V14.01,2013-10-20 07:00:00,
2013-10-20 03:03:00,63.3,57.4,29.93,East,88,0.0,0.0,81,0.00,,---,0.00,VWS V14.01,2013-10-20 07:03:00,
2013-10-20 03:08:00,63.2,57.3,29.93,East,95,0.0,1.0,81,0.00,,---,0.00,VWS V14.01,2013-10-20 07:08:00,
2013-10-20 03:13:00,63.2,57.6,29.93,ENE,76,0.0,3.0,82,0.00,,---,0.00,VWS V14.01,2013-10-20 07:13:00,
2013-10-20 03:18:00,63.1,57.5,29.93,SE,138,0.0,3.0,82,0.00,,---,0.00,VWS V14.01,2013-10-20 07:18:00,
2013-10-20 03:23:00,62.9,57.3,29.92,SE,139,0.0,3.0,82,0.00,,---,0.00,VWS V14.01,2013-10-20 07:23:00,
2013-10-20 03:28:00,62.7,57.5,29.92,SE,139,0.0,3.0,83,0.00,,---,0.00,VWS V14.01,2013-10-20 07:28:00,
2013-10-20 03:30:00,62.7,57.5,29.92,SE,139,0.0,3.0,83,0.00,,---,0.00,VWS V14.01,2013-10-20 07:30:00,
2013-10-20 03:34:00,62.7,57.5,29.92,SE,139,0.0,0.0,83,0.00,,---,0.00,VWS V14.01,2013-10-20 07:34:00,
2013-10-20 03:39:00,62.5,57.3,29.92,SE,132,0.0,1.0,83,0.00,,---,0.00,VWS V14.01,2013-10-20 07:39:00,
2013-10-20 03:44:00,62.3,57.4,29.92,South,181,0.0,1.0,84,0.00,,---,0.00,VWS V14.01,2013-10-20 07:44:00,
2013-10-20 03:49:00,62.3,57.4,29.92,SSE,168,0.0,1.0,84,0.00,,---,0.00,VWS V14.01,2013-10-20 07:49:00,
2013-10-20 03:54:00,62.2,57.3,29.92,SE,136,0.0,1.0,84,0.01,,---,0.01,VWS V14.01,2013-10-20 07:54:00,
2013-10-20 03:59:00,62.1,57.5,29.92,SE,136,0.0,1.0,85,0.01,,---,0.01,VWS V14.01,2013-10-20 07:59:00,
2013-10-20 04:00:00,62.1,57.5,29.92,SE,136,0.0,1.0,85,0.01,,---,0.01,VWS V14.01,2013-10-20 08:00:00,
2013-10-20 04:04:00,62.0,57.5,29.92,SE,136,0.0,0.0,85,0.01,,---,0.01,VWS V14.01,2013-10-20 08:04:00,
2013-10-20 04:09:00,61.9,57.7,29.92,SE,136,0.0,0.0,86,0.01,,---,0.01,VWS V14.01,2013-10-20 08:09:00,
2013-10-20 04:14:00,61.7,57.5,29.92,SE,136,0.0,1.0,86,0.01,,---,0.01,VWS V14.01,2013-10-20 08:14:00,
2013-10-20 04:19:00,61.6,57.4,29.92,SE,135,0.0,1.0,86,0.01,,---,0.01,VWS V14.01,2013-10-20 08:19:00,
2013-10-20 04:24:00,61.5,57.3,29.92,SE,135,0.0,1.0,86,0.01,,---,0.01,VWS V14.01,2013-10-20 08:24:00,
2013-10-20 04:29:00,61.5,57.3,29.92,SE,135,0.0,0.0,86,0.01,,---,0.01,VWS V14.01,2013-10-20 08:29:00,
2013-10-20 04:30:00,61.5,57.3,29.92,SE,135,0.0,1.0,86,0.01,,---,0.01,VWS V14.01,2013-10-20 08:30:00,
2013-10-20 04:34:00,61.5,57.6,29.92,East,82,0.0,1.0,87,0.01,,---,0.01,VWS V14.01,2013-10-20 08:34:00,
2013-10-20 04:39:00,61.4,57.5,29.92,East,86,0.0,1.0,87,0.01,,---,0.01,VWS V14.01,2013-10-20 08:39:00,
2013-10-20 04:44:00,61.4,57.5,29.92,SSE,156,0.0,1.0,87,0.01,,---,0.01,VWS V14.01,2013-10-20 08:44:00,
2013-10-20 04:49:00,61.4,57.5,29.92,East,94,0.0,1.0,87,0.01,,---,0.01,VWS V14.01,2013-10-20 08:49:00,
2013-10-20 04:54:00,61.3,57.4,29.92,SSE,156,2.0,4.0,87,0.01,,---,0.01,VWS V14.01,2013-10-20 08:54:00,
2013-10-20 04:59:00,61.3,57.1,29.92,ESE,117,0.0,0.0,86,0.00,,---,0.01,VWS V14.01,2013-10-20 08:59:00,
2013-10-20 05:00:00,61.3,57.1,29.92,ESE,117,0.0,4.0,86,0.01,,---,0.01,VWS V14.01,2013-10-20 09:00:00,
2013-10-20 05:04:00,61.3,57.4,29.93,East,101,0.0,1.0,87,0.00,,---,0.01,VWS V14.01,2013-10-20 09:04:00,
2013-10-20 05:09:00,61.2,57.3,29.93,East,95,0.0,2.0,87,0.00,,---,0.01,VWS V14.01,2013-10-20 09:09:00,
2013-10-20 05:14:00,61.1,57.2,29.93,East,101,0.0,2.0,87,0.00,,---,0.01,VWS V14.01,2013-10-20 09:14:00,
2013-10-20 05:19:00,61.1,57.2,29.93,ESE,113,0.0,2.0,87,0.00,,---,0.01,VWS V14.01,2013-10-20 09:19:00,
2013-10-20 05:24:00,61.1,57.2,29.94,ESE,108,0.0,2.0,87,0.00,,---,0.01,VWS V14.01,2013-10-20 09:24:00,
2013-10-20 05:29:00,61.0,57.1,29.93,ESE,107,0.0,0.0,87,0.00,,---,0.01,VWS V14.01,2013-10-20 09:29:00,
2013-10-20 05:30:00,61.0,57.1,29.93,ESE,107,0.0,2.0,87,0.00,,---,0.01,VWS V14.01,2013-10-20 09:30:00,
2013-10-20 05:34:00,60.9,57.3,29.93,ESE,107,0.0,0.0,88,0.00,,---,0.01,VWS V14.01,2013-10-20 09:34:00,
2013-10-20 05:39:00,60.8,57.2,29.94,ESE,107,0.0,0.0,88,0.00,,---,0.01,VWS V14.01,2013-10-20 09:39:00,
2013-10-20 05:44:00,60.7,57.1,29.93,ESE,107,0.0,1.0,88,0.00,,---,0.01,VWS V14.01,2013-10-20 09:44:00,
2013-10-20 05:50:00,60.6,57.3,29.94,ESE,105,0.0,1.0,89,0.00,,---,0.01,VWS V14.01,2013-10-20 09:50:00,
2013-10-20 05:55:00,60.5,57.2,29.94,ESE,105,0.0,1.0,89,0.00,,---,0.01,VWS V14.01,2013-10-20 09:55:00,
2013-10-20 06:00:00,60.4,57.2,29.94,ESE,105,0.0,0.0,89,0.00,,---,0.01,VWS V14.01,2013-10-20 10:00:00,
2013-10-20 06:05:00,60.3,57.0,29.94,ESE,105,0.0,1.0,89,0.00,,---,0.01,VWS V14.01,2013-10-20 10:05:00,
2013-10-20 06:10:00,60.3,57.4,29.95,ESE,105,0.0,1.0,90,0.00,,---,0.01,VWS V14.01,2013-10-20 10:10:00,
2013-10-20 06:15:00,60.2,57.3,29.95,ESE,105,0.0,1.0,90,0.00,,---,0.01,VWS V14.01,2013-10-20 10:15:00,
2013-10-20 06:20:00,60.1,57.2,29.95,ESE,105,0.0,1.0,90,0.00,,---,0.01,VWS V14.01,2013-10-20 10:20:00,
2013-10-20 06:25:00,60.0,57.1,29.94,ESE,105,0.0,1.0,90,0.00,,---,0.01,VWS V14.01,2013-10-20 10:25:00,
2013-10-20 06:30:00,60.0,57.1,29.95,ESE,105,0.0,0.0,90,0.00,,---,0.01,VWS V14.01,2013-10-20 10:30:00,
2013-10-20 06:35:00,59.9,57.0,29.95,ESE,105,0.0,0.0,90,0.00,,---,0.01,VWS V14.01,2013-10-20 10:35:00,
2013-10-20 06:40:00,59.8,56.9,29.96,ESE,105,0.0,1.0,90,0.00,,---,0.01,VWS V14.01,2013-10-20 10:40:00,
2013-10-20 06:45:00,59.8,56.9,29.96,ESE,105,0.0,1.0,90,0.00,,---,0.01,VWS V14.01,2013-10-20 10:45:00,
2013-10-20 06:50:00,59.8,56.9,29.96,ESE,105,0.0,1.0,90,0.00,,---,0.01,VWS V14.01,2013-10-20 10:50:00,
2013-10-20 06:55:00,59.7,56.8,29.96,ESE,105,0.0,1.0,90,0.00,,---,0.01,VWS V14.01,2013-10-20 10:55:00,
2013-10-20 07:00:00,59.8,57.5,29.96,ESE,105,0.0,0.0,92,0.00,,---,0.01,VWS V14.01,2013-10-20 11:00:00,
2013-10-20 07:05:00,59.7,56.8,29.96,ESE,105,0.0,1.0,90,0.00,,---,0.01,VWS V14.01,2013-10-20 11:05:00,
2013-10-20 07:10:00,59.7,56.8,29.96,ESE,105,0.0,1.0,90,0.00,,---,0.01,VWS V14.01,2013-10-20 11:10:00,
2013-10-20 07:15:00,59.8,56.9,29.96,ESE,123,0.0,1.0,90,0.00,,---,0.01,VWS V14.01,2013-10-20 11:15:00,
2013-10-20 07:20:00,59.8,56.9,29.96,SSE,159,0.0,3.0,90,0.00,,---,0.01,VWS V14.01,2013-10-20 11:20:00,
2013-10-20 07:25:00,59.9,57.0,29.96,SE,145,4.0,6.0,90,0.00,,---,0.01,VWS V14.01,2013-10-20 11:25:00,
2013-10-20 07:30:00,59.9,56.7,29.97,ESE,122,0.0,3.0,89,0.00,,---,0.01,VWS V14.01,2013-10-20 11:30:00,
2013-10-20 07:35:00,60.0,56.8,29.97,SSW,205,2.0,6.0,89,0.00,,---,0.01,VWS V14.01,2013-10-20 11:35:00,
2013-10-20 07:41:00,60.1,56.8,29.97,SSE,157,1.0,6.0,89,0.00,,---,0.01,VWS V14.01,2013-10-20 11:41:00,
2013-10-20 07:46:00,60.1,56.8,29.97,SSE,167,0.0,8.0,89,0.00,,---,0.01,VWS V14.01,2013-10-20 11:46:00,
2013-10-20 07:50:00,60.2,56.6,29.98,SSE,151,0.0,10.0,88,0.00,,---,0.01,VWS V14.01,2013-10-20 11:50:00,
2013-10-20 07:56:00,60.1,56.5,29.98,SSE,165,1.0,10.0,88,0.00,,---,0.01,VWS V14.01,2013-10-20 11:56:00,
2013-10-20 08:00:00,60.1,56.5,29.98,SE,136,2.0,10.0,88,0.00,,---,0.01,VWS V14.01,2013-10-20 12:00:00,
2013-10-20 08:01:00,60.1,56.5,29.98,SE,144,5.0,6.0,88,0.00,,---,0.01,VWS V14.01,2013-10-20 12:01:00,
2013-10-20 08:06:00,60.0,56.4,29.98,SE,144,6.0,8.0,88,0.00,,---,0.01,VWS V14.01,2013-10-20 12:06:00,
2013-10-20 08:11:00,60.0,56.4,29.99,South,171,0.0,8.0,88,0.00,,---,0.01,VWS V14.01,2013-10-20 12:11:00,
2013-10-20 08:16:00,59.9,56.3,29.99,SSW,200,0.0,8.0,88,0.00,,---,0.01,VWS V14.01,2013-10-20 12:16:00,
2013-10-20 08:21:00,59.9,56.3,29.99,SE,144,4.0,8.0,88,0.00,,---,0.01,VWS V14.01,2013-10-20 12:21:00,
2013-10-20 08:26:00,59.9,56.3,30.00,SSE,161,0.0,8.0,88,0.00,,---,0.01,VWS V14.01,2013-10-20 12:26:00,
2013-10-20 08:30:00,59.9,56.0,30.00,South,178,0.0,8.0,87,0.00,,---,0.01,VWS V14.01,2013-10-20 12:30:00,
2013-10-20 08:31:00,60.0,56.1,30.00,SSE,153,8.0,9.0,87,0.00,,---,0.01,VWS V14.01,2013-10-20 12:31:00,
2013-10-20 08:36:00,60.0,56.1,30.01,South,171,2.0,10.0,87,0.00,,---,0.01,VWS V14.01,2013-10-20 12:36:00,
2013-10-20 08:41:00,60.0,56.1,30.01,SSE,154,3.0,12.0,87,0.00,,---,0.01,VWS V14.01,2013-10-20 12:41:00,
2013-10-20 08:46:00,60.1,56.2,30.02,SSE,148,2.0,12.0,87,0.00,,---,0.01,VWS V14.01,2013-10-20 12:46:00,
2013-10-20 08:51:00,60.1,55.9,30.02,SE,134,2.0,12.0,86,0.00,,---,0.01,VWS V14.01,2013-10-20 12:51:00,
2013-10-20 08:56:00,60.2,56.0,30.02,South,171,2.0,12.0,86,0.00,,---,0.01,VWS V14.01,2013-10-20 12:56:00,
2013-10-20 09:00:00,60.2,56.0,30.02,South,188,3.0,12.0,86,0.00,,---,0.01,VWS V14.01,2013-10-20 13:00:00,
2013-10-20 09:01:00,60.3,55.8,30.03,South,180,3.0,6.0,85,0.00,,---,0.01,VWS V14.01,2013-10-20 13:01:00,
2013-10-20 09:06:00,60.4,55.9,30.03,SSW,198,3.0,13.0,85,0.00,,---,0.01,VWS V14.01,2013-10-20 13:06:00,
2013-10-20 09:11:00,60.6,55.4,30.03,SE,135,0.0,13.0,83,0.00,,---,0.01,VWS V14.01,2013-10-20 13:11:00,
2013-10-20 09:16:00,60.6,55.1,30.03,South,175,2.0,14.0,82,0.00,,---,0.01,VWS V14.01,2013-10-20 13:16:00,
2013-10-20 09:21:00,60.7,54.8,30.03,SSE,147,5.0,16.0,81,0.00,,---,0.01,VWS V14.01,2013-10-20 13:21:00,
2013-10-20 09:26:00,60.7,54.8,30.03,South,179,6.0,16.0,81,0.00,,---,0.01,VWS V14.01,2013-10-20 13:26:00,
2013-10-20 09:30:00,60.7,54.8,30.04,South,180,2.0,16.0,81,0.00,,---,0.01,VWS V14.01,2013-10-20 13:30:00,
2013-10-20 09:31:00,60.8,54.9,30.04,SSE,154,5.0,5.0,81,0.00,,---,0.01,VWS V14.01,2013-10-20 13:31:00,
2013-10-20 09:36:00,61.0,55.5,30.04,SSE,159,0.0,7.0,82,0.00,,---,0.01,VWS V14.01,2013-10-20 13:36:00,
2013-10-20 09:41:00,61.1,54.9,30.04,South,173,14.0,17.0,80,0.00,,---,0.01,VWS V14.01,2013-10-20 13:41:00,
2013-10-20 09:46:00,60.9,54.7,30.04,SE,145,0.0,17.0,80,0.00,,---,0.01,VWS V14.01,2013-10-20 13:46:00,
2013-10-20 09:51:00,61.1,54.5,30.04,SSE,151,4.0,17.0,79,0.00,,---,0.01,VWS V14.01,2013-10-20 13:51:00,
2013-10-20 09:56:00,61.1,54.2,30.04,South,169,0.0,17.0,78,0.00,,---,0.01,VWS V14.01,2013-10-20 13:56:00,
2013-10-20 10:00:00,61.1,53.5,30.04,SSE,147,1.0,17.0,76,0.00,,---,0.01,VWS V14.01,2013-10-20 14:00:00,
2013-10-20 10:01:00,61.1,53.8,30.05,SE,145,0.0,9.0,77,0.00,,---,0.01,VWS V14.01,2013-10-20 14:01:00,
2013-10-20 10:06:00,60.7,52.7,30.05,SSE,168,4.0,17.0,75,0.00,,---,0.01,VWS V14.01,2013-10-20 14:06:00,
2013-10-20 10:11:00,60.5,52.2,30.05,SSE,161,7.0,17.0,74,0.00,,---,0.01,VWS V14.01,2013-10-20 14:11:00,
2013-10-20 10:16:00,60.3,52.0,30.05,South,179,3.0,17.0,74,0.00,,---,0.01,VWS V14.01,2013-10-20 14:16:00,
2013-10-20 10:21:00,60.2,52.3,30.05,SE,146,6.0,17.0,75,0.00,,---,0.01,VWS V14.01,2013-10-20 14:21:00,
2013-10-20 10:26:00,60.2,51.9,30.05,SSW,200,7.0,17.0,74,0.00,,---,0.01,VWS V14.01,2013-10-20 14:26:00,
2013-10-20 10:30:00,60.2,52.3,30.05,SSW,206,4.0,17.0,75,0.00,,---,0.01,VWS V14.01,2013-10-20 14:30:00,
2013-10-20 10:31:00,60.1,51.4,30.06,South,169,6.0,18.0,73,0.00,,---,0.01,VWS V14.01,2013-10-20 14:31:00,
2013-10-20 10:36:00,60.1,51.8,30.06,SSW,198,1.0,18.0,74,0.00,,---,0.01,VWS V14.01,2013-10-20 14:36:00,
2013-10-20 10:41:00,60.0,51.3,30.06,SSW,205,7.0,18.0,73,0.00,,---,0.01,VWS V14.01,2013-10-20 14:41:00,
2013-10-20 10:46:00,59.8,51.5,30.06,South,170,1.0,18.0,74,0.00,,---,0.01,VWS V14.01,2013-10-20 14:46:00,
2013-10-20 10:51:00,59.9,51.6,30.06,SE,136,10.0,18.0,74,0.00,,---,0.01,VWS V14.01,2013-10-20 14:51:00,
2013-10-20 10:56:00,59.9,51.6,30.06,SSE,151,0.0,18.0,74,0.00,,---,0.01,VWS V14.01,2013-10-20 14:56:00,
2013-10-20 11:00:00,60.0,51.7,30.06,SSE,150,1.0,18.0,74,0.00,,---,0.01,VWS V14.01,2013-10-20 15:00:00,
2013-10-20 11:01:00,60.2,51.5,30.06,SSE,164,0.0,4.0,73,0.00,,---,0.01,VWS V14.01,2013-10-20 15:01:00,
2013-10-20 11:06:00,59.9,51.2,30.06,SSE,158,0.0,12.0,73,0.00,,---,0.01,VWS V14.01,2013-10-20 15:06:00,
2013-10-20 11:11:00,60.0,51.3,30.06,SSW,194,6.0,12.0,73,0.00,,---,0.01,VWS V14.01,2013-10-20 15:11:00,
2013-10-20 11:16:00,60.1,51.4,30.06,SE,140,6.0,12.0,73,0.00,,---,0.01,VWS V14.01,2013-10-20 15:16:00,
2013-10-20 11:21:00,60.2,51.5,30.06,SSE,147,1.0,12.0,73,0.00,,---,0.01,VWS V14.01,2013-10-20 15:21:00,
2013-10-20 11:26:00,60.4,51.7,30.06,SSE,158,0.0,12.0,73,0.00,,---,0.01,VWS V14.01,2013-10-20 15:26:00,
2013-10-20 11:30:00,60.6,51.9,30.06,SE,146,8.0,12.0,73,0.00,,---,0.01,VWS V14.01,2013-10-20 15:30:00,
2013-10-20 11:31:00,60.7,52.0,30.06,SE,145,8.0,10.0,73,0.00,,---,0.01,VWS V14.01,2013-10-20 15:31:00,
2013-10-20 11:36:00,60.8,52.1,30.06,SSE,148,7.0,10.0,73,0.00,,---,0.01,VWS V14.01,2013-10-20 15:36:00,
2013-10-20 11:41:00,60.9,52.2,30.06,South,190,6.0,13.0,73,0.00,,---,0.01,VWS V14.01,2013-10-20 15:41:00,
2013-10-20 11:46:00,61.4,52.7,30.06,SSE,150,0.0,13.0,73,0.00,,---,0.01,VWS V14.01,2013-10-20 15:46:00,
2013-10-20 11:51:00,61.9,52.4,30.06,South,186,9.0,13.0,71,0.00,,---,0.01,VWS V14.01,2013-10-20 15:51:00,
2013-10-20 11:56:00,62.1,52.2,30.06,South,173,0.0,13.0,70,0.00,,---,0.01,VWS V14.01,2013-10-20 15:56:00,
2013-10-20 12:00:00,62.2,52.3,30.05,SSW,196,0.0,13.0,70,0.00,,---,0.01,VWS V14.01,2013-10-20 16:00:00,
2013-10-20 12:01:00,62.6,53.1,30.06,SSE,165,4.0,5.0,71,0.00,,---,0.01,VWS V14.01,2013-10-20 16:01:00,
2013-10-20 12:06:00,62.6,51.9,30.06,SE,133,8.0,9.0,68,0.00,,---,0.01,VWS V14.01,2013-10-20 16:06:00,
2013-10-20 12:11:00,62.6,51.9,30.06,SSE,155,5.0,10.0,68,0.00,,---,0.01,VWS V14.01,2013-10-20 16:11:00,
2013-10-20 12:16:00,62.9,52.2,30.06,SSE,162,1.0,10.0,68,0.00,,---,0.01,VWS V14.01,2013-10-20 16:16:00,
2013-10-20 12:21:00,63.2,52.9,30.06,South,173,0.0,10.0,69,0.00,,---,0.01,VWS V14.01,2013-10-20 16:21:00,
2013-10-20 12:26:00,63.5,51.5,30.06,SW,225,0.0,10.0,65,0.00,,---,0.01,VWS V14.01,2013-10-20 16:26:00,
2013-10-20 12:30:00,63.6,52.0,30.06,ENE,62,0.0,10.0,66,0.00,,---,0.01,VWS V14.01,2013-10-20 16:30:00,
2013-10-20 12:31:00,63.7,51.3,30.06,SSW,194,3.0,5.0,64,0.00,,---,0.01,VWS V14.01,2013-10-20 16:31:00,
2013-10-20 12:36:00,63.6,50.8,30.06,SSE,157,2.0,8.0,63,0.00,,---,0.01,VWS V14.01,2013-10-20 16:36:00,
2013-10-20 12:41:00,63.8,51.4,30.07,SW,227,0.0,8.0,64,0.00,,---,0.01,VWS V14.01,2013-10-20 16:41:00,
2013-10-20 12:46:00,63.9,51.5,30.07,South,180,0.0,10.0,64,0.00,,---,0.01,VWS V14.01,2013-10-20 16:46:00,
2013-10-20 12:51:00,63.8,51.4,30.07,SSW,198,0.0,10.0,64,0.00,,---,0.01,VWS V14.01,2013-10-20 16:51:00,
2013-10-20 12:56:00,63.9,51.5,30.07,South,184,0.0,10.0,64,0.00,,---,0.01,VWS V14.01,2013-10-20 16:56:00,
2013-10-20 13:00:00,63.9,51.5,30.06,South,184,0.0,10.0,64,0.00,,---,0.01,VWS V14.01,2013-10-20 17:00:00,
2013-10-20 13:01:00,64.2,52.2,30.06,South,184,0.0,0.0,65,0.00,,---,0.01,VWS V14.01,2013-10-20 17:01:00,
2013-10-20 13:06:00,64.6,52.2,30.06,SSE,166,0.0,5.0,64,0.00,,---,0.01,VWS V14.01,2013-10-20 17:06:00,
2013-10-20 13:11:00,64.7,52.3,30.06,SSE,147,3.0,6.0,64,0.00,,---,0.01,VWS V14.01,2013-10-20 17:11:00,
2013-10-20 13:16:00,64.8,51.5,30.05,SW,230,3.0,8.0,62,0.00,,---,0.01,VWS V14.01,2013-10-20 17:16:00,
2013-10-20 13:21:00,65.1,51.8,30.05,West,259,0.0,8.0,62,0.00,,---,0.01,VWS V14.01,2013-10-20 17:21:00,
2013-10-20 13:26:00,65.4,52.5,30.05,South,169,0.0,8.0,63,0.00,,---,0.01,VWS V14.01,2013-10-20 17:26:00,
2013-10-20 13:30:00,65.4,52.1,30.05,SSE,151,0.0,8.0,62,0.00,,---,0.01,VWS V14.01,2013-10-20 17:30:00,
2013-10-20 13:31:00,65.4,51.6,30.05,South,178,0.0,1.0,61,0.00,,---,0.01,VWS V14.01,2013-10-20 17:31:00,
2013-10-20 13:36:00,65.4,52.1,30.04,South,174,0.0,4.0,62,0.00,,---,0.01,VWS V14.01,2013-10-20 17:36:00,
2013-10-20 13:41:00,66.0,52.6,30.04,ESE,109,0.0,6.0,62,0.00,,---,0.01,VWS V14.01,2013-10-20 17:41:00,
2013-10-20 13:46:00,66.1,52.3,30.04,SSE,147,0.0,7.0,61,0.00,,---,0.01,VWS V14.01,2013-10-20 17:46:00,
2013-10-20 13:51:00,66.2,51.9,30.04,South,171,0.0,7.0,60,0.00,,---,0.01,VWS V14.01,2013-10-20 17:51:00,
2013-10-20 13:56:00,66.4,52.6,30.03,South,171,0.0,7.0,61,0.00,,---,0.01,VWS V14.01,2013-10-20 17:56:00,
2013-10-20 14:00:00,66.7,52.4,30.03,SSE,160,4.0,7.0,60,0.00,,---,0.01,VWS V14.01,2013-10-20 18:00:00,
2013-10-20 14:01:00,66.6,51.8,30.03,South,185,0.0,7.0,59,0.00,,---,0.01,VWS V14.01,2013-10-20 18:01:00,
2013-10-20 14:06:00,66.5,52.2,30.03,SE,132,0.0,7.0,60,0.00,,---,0.01,VWS V14.01,2013-10-20 18:06:00,
2013-10-20 14:11:00,66.7,52.4,30.03,SE,129,0.0,7.0,60,0.00,,---,0.01,VWS V14.01,2013-10-20 18:11:00,
2013-10-20 14:17:00,67.0,52.7,30.03,WSW,257,2.0,7.0,60,0.00,,---,0.01,VWS V14.01,2013-10-20 18:17:00,
2013-10-20 14:22:00,67.0,52.2,30.03,South,185,0.0,8.0,59,0.00,,---,0.01,VWS V14.01,2013-10-20 18:22:00,
2013-10-20 14:27:00,66.8,52.5,30.03,SSE,165,0.0,8.0,60,0.00,,---,0.01,VWS V14.01,2013-10-20 18:27:00,
2013-10-20 14:30:00,66.8,52.5,30.02,WSW,248,4.0,8.0,60,0.00,,---,0.01,VWS V14.01,2013-10-20 18:30:00,
2013-10-20 14:32:00,66.7,52.4,30.02,West,260,0.0,4.0,60,0.00,,---,0.01,VWS V14.01,2013-10-20 18:32:00,
2013-10-20 14:37:00,66.9,52.6,30.02,South,180,4.0,5.0,60,0.00,,---,0.01,VWS V14.01,2013-10-20 18:37:00,
2013-10-20 14:42:00,66.5,51.8,30.02,South,179,0.0,7.0,59,0.00,,---,0.01,VWS V14.01,2013-10-20 18:42:00,
2013-10-20 14:47:00,66.6,52.3,30.02,SSW,195,0.0,7.0,60,0.00,,---,0.01,VWS V14.01,2013-10-20 18:47:00,
2013-10-20 14:52:00,67.2,52.9,30.02,South,184,0.0,7.0,60,0.00,,---,0.01,VWS V14.01,2013-10-20 18:52:00,
2013-10-20 14:57:00,67.8,52.5,30.02,SE,140,1.0,7.0,58,0.00,,---,0.01,VWS V14.01,2013-10-20 18:57:00,
2013-10-20 15:00:00,67.8,52.5,30.02,SE,134,0.0,7.0,58,0.00,,---,0.01,VWS V14.01,2013-10-20 19:00:00,
2013-10-20 15:02:00,67.8,53.0,30.02,South,175,2.0,6.0,59,0.00,,---,0.01,VWS V14.01,2013-10-20 19:02:00,
2013-10-20 15:07:00,67.7,52.9,30.02,South,190,0.0,6.0,59,0.00,,---,0.01,VWS V14.01,2013-10-20 19:07:00,
2013-10-20 15:12:00,68.0,53.2,30.02,WSW,252,2.0,8.0,59,0.00,,---,0.01,VWS V14.01,2013-10-20 19:12:00,
2013-10-20 15:17:00,68.2,52.9,30.02,WNW,286,0.0,8.0,58,0.00,,---,0.01,VWS V14.01,2013-10-20 19:17:00,
2013-10-20 15:22:00,68.3,53.0,30.01,West,274,0.0,8.0,58,0.00,,---,0.01,VWS V14.01,2013-10-20 19:22:00,
2013-10-20 15:27:00,68.5,53.2,30.01,SW,219,1.0,8.0,58,0.00,,---,0.01,VWS V14.01,2013-10-20 19:27:00,
2013-10-20 15:30:00,68.6,52.8,30.01,SE,146,3.0,8.0,57,0.00,,---,0.01,VWS V14.01,2013-10-20 19:30:00,
2013-10-20 15:32:00,68.4,53.1,30.01,South,175,0.0,6.0,58,0.00,,---,0.01,VWS V14.01,2013-10-20 19:32:00,
2013-10-20 15:37:00,68.2,53.3,30.01,South,186,4.0,7.0,59,0.00,,---,0.01,VWS V14.01,2013-10-20 19:37:00,
2013-10-20 15:42:00,68.1,52.8,30.01,SSW,212,0.0,7.0,58,0.00,,---,0.01,VWS V14.01,2013-10-20 19:42:00,
2013-10-20 15:47:00,68.3,53.4,30.01,South,171,1.0,8.0,59,0.00,,---,0.01,VWS V14.01,2013-10-20 19:47:00,
2013-10-20 15:52:00,68.2,52.9,30.01,SSE,163,0.0,8.0,58,0.00,,---,0.01,VWS V14.01,2013-10-20 19:52:00,
2013-10-20 15:57:00,68.1,53.2,30.01,SSW,192,0.0,8.0,59,0.00,,---,0.01,VWS V14.01,2013-10-20 19:57:00,
2013-10-20 16:00:00,68.1,53.2,30.01,SSW,192,0.0,8.0,59,0.00,,---,0.01,VWS V14.01,2013-10-20 20:00:00,
2013-10-20 16:02:00,68.1,53.7,30.01,South,191,0.0,0.0,60,0.00,,---,0.01,VWS V14.01,2013-10-20 20:02:00,
2013-10-20 16:07:00,68.1,53.7,30.01,SSW,194,0.0,4.0,60,0.00,,---,0.01,VWS V14.01,2013-10-20 20:07:00,
2013-10-20 16:12:00,68.2,53.3,30.01,South,172,0.0,5.0,59,0.00,,---,0.01,VWS V14.01,2013-10-20 20:12:00,
2013-10-20 16:17:00,68.3,53.9,30.01,SSE,162,0.0,6.0,60,0.00,,---,0.01,VWS V14.01,2013-10-20 20:17:00,
2013-10-20 16:22:00,68.4,53.5,30.02,SSE,159,4.0,7.0,59,0.00,,---,0.01,VWS V14.01,2013-10-20 20:22:00,
2013-10-20 16:27:00,68.4,54.4,30.01,SSW,194,0.0,7.0,61,0.00,,---,0.01,VWS V14.01,2013-10-20 20:27:00,
2013-10-20 16:30:00,68.4,54.4,30.01,SSW,200,1.0,7.0,61,0.00,,---,0.01,VWS V14.01,2013-10-20 20:30:00,
2013-10-20 16:32:00,68.5,54.1,30.01,SSE,148,0.0,4.0,60,0.00,,---,0.01,VWS V14.01,2013-10-20 20:32:00,
2013-10-20 16:37:00,68.6,54.2,30.02,South,178,0.0,4.0,60,0.00,,---,0.01,VWS V14.01,2013-10-20 20:37:00,
2013-10-20 16:42:00,68.5,54.1,30.02,South,182,0.0,5.0,60,0.00,,---,0.01,VWS V14.01,2013-10-20 20:42:00,
2013-10-20 16:47:00,68.4,53.5,30.02,South,189,4.0,5.0,59,0.00,,---,0.01,VWS V14.01,2013-10-20 20:47:00,
2013-10-20 16:52:00,68.1,53.7,30.02,ESE,112,0.0,6.0,60,0.00,,---,0.01,VWS V14.01,2013-10-20 20:52:00,
2013-10-20 16:57:00,68.1,53.7,30.02,South,179,0.0,6.0,60,0.00,,---,0.01,VWS V14.01,2013-10-20 20:57:00,
2013-10-20 17:00:00,68.1,54.2,30.02,South,179,0.0,6.0,61,0.00,,---,0.01,VWS V14.01,2013-10-20 21:00:00,
2013-10-20 17:02:00,68.1,54.6,30.02,SSE,153,0.0,1.0,62,0.00,,---,0.01,VWS V14.01,2013-10-20 21:02:00,
2013-10-20 17:07:00,68.2,54.2,30.02,SE,142,0.0,4.0,61,0.00,,---,0.01,VWS V14.01,2013-10-20 21:07:00,
2013-10-20 17:12:00,68.0,54.5,30.02,SE,145,0.0,4.0,62,0.00,,---,0.01,VWS V14.01,2013-10-20 21:12:00,
2013-10-20 17:17:00,68.0,55.0,30.02,SE,144,0.0,4.0,63,0.00,,---,0.01,VWS V14.01,2013-10-20 21:17:00,
2013-10-20 17:22:00,67.9,54.4,30.02,SE,139,3.0,4.0,62,0.00,,---,0.01,VWS V14.01,2013-10-20 21:22:00,
2013-10-20 17:28:00,67.7,54.2,30.03,SE,142,0.0,4.0,62,0.00,,---,0.01,VWS V14.01,2013-10-20 21:28:00,
2013-10-20 17:30:00,67.7,54.2,30.02,SE,142,0.0,4.0,62,0.00,,---,0.01,VWS V14.01,2013-10-20 21:30:00,
2013-10-20 17:33:00,67.7,54.7,30.03,South,173,4.0,5.0,63,0.00,,---,0.01,VWS V14.01,2013-10-20 21:33:00,
2013-10-20 17:38:00,67.4,54.4,30.03,SE,146,0.0,5.0,63,0.00,,---,0.01,VWS V14.01,2013-10-20 21:38:00,
2013-10-20 17:43:00,67.4,54.4,30.03,SSE,149,0.0,5.0,63,0.00,,---,0.01,VWS V14.01,2013-10-20 21:43:00,
2013-10-20 17:48:00,67.2,54.2,30.03,SSE,151,1.0,5.0,63,0.00,,---,0.01,VWS V14.01,2013-10-20 21:48:00,
2013-10-20 17:53:00,67.1,54.5,30.03,SSE,151,0.0,5.0,64,0.00,,---,0.01,VWS V14.01,2013-10-20 21:53:00,
2013-10-20 17:58:00,66.8,54.7,30.03,SSE,151,0.0,5.0,65,0.00,,---,0.01,VWS V14.01,2013-10-20 21:58:00,
2013-10-20 18:00:00,66.8,54.7,30.03,SSE,151,0.0,5.0,65,0.00,,---,0.01,VWS V14.01,2013-10-20 22:00:00,
2013-10-20 18:03:00,66.6,54.9,30.03,SSE,151,0.0,0.0,66,0.00,,---,0.01,VWS V14.01,2013-10-20 22:03:00,
2013-10-20 18:08:00,66.3,55.0,30.03,SSE,151,0.0,1.0,67,0.00,,---,0.01,VWS V14.01,2013-10-20 22:08:00,
2013-10-20 18:13:00,66.0,55.2,30.03,SSE,151,0.0,1.0,68,0.00,,---,0.01,VWS V14.01,2013-10-20 22:13:00,
2013-10-20 18:18:00,65.7,55.3,30.03,SSE,151,0.0,1.0,69,0.00,,---,0.01,VWS V14.01,2013-10-20 22:18:00,
2013-10-20 18:23:00,65.4,55.0,30.03,SSE,151,0.0,1.0,69,0.00,,---,0.01,VWS V14.01,2013-10-20 22:23:00,
2013-10-20 18:28:00,65.2,55.6,30.03,SSE,151,0.0,1.0,71,0.00,,---,0.01,VWS V14.01,2013-10-20 22:28:00,
2013-10-20 18:30:00,65.1,55.5,30.03,SSE,151,0.0,1.0,71,0.00,,---,0.01,VWS V14.01,2013-10-20 22:30:00,
2013-10-20 18:33:00,64.8,55.6,30.04,SSE,151,0.0,0.0,72,0.00,,---,0.01,VWS V14.01,2013-10-20 22:33:00,
2013-10-20 18:38:00,64.5,55.7,30.04,SSE,151,0.0,0.0,73,0.00,,---,0.01,VWS V14.01,2013-10-20 22:38:00,
2013-10-20 18:43:00,64.1,56.0,30.03,SSE,151,0.0,0.0,75,0.00,,---,0.01,VWS V14.01,2013-10-20 22:43:00,
2013-10-20 18:48:00,63.6,55.9,30.03,SSE,151,0.0,0.0,76,0.00,,---,0.01,VWS V14.01,2013-10-20 22:48:00,
2013-10-20 18:53:00,63.3,56.0,30.04,SSE,151,0.0,0.0,77,0.00,,---,0.01,VWS V14.01,2013-10-20 22:53:00,
2013-10-20 18:58:00,63.1,55.8,30.04,SSE,151,0.0,0.0,77,0.00,,---,0.01,VWS V14.01,2013-10-20 22:58:00,
2013-10-20 19:00:00,63.1,55.8,30.04,SSE,151,0.0,0.0,77,0.00,,---,0.01,VWS V14.01,2013-10-20 23:00:00,
2013-10-20 19:03:00,62.9,55.9,30.04,SSE,151,0.0,0.0,78,0.00,,---,0.01,VWS V14.01,2013-10-20 23:03:00,
2013-10-20 19:08:00,62.6,56.0,30.04,SSE,151,0.0,0.0,79,0.00,,---,0.01,VWS V14.01,2013-10-20 23:08:00,
2013-10-20 19:13:00,62.3,56.1,30.04,SSE,151,0.0,0.0,80,0.00,,---,0.01,VWS V14.01,2013-10-20 23:13:00,
2013-10-20 19:18:00,62.1,55.9,30.04,SSE,151,0.0,0.0,80,0.00,,---,0.01,VWS V14.01,2013-10-20 23:18:00,
2013-10-20 19:23:00,61.8,55.9,30.05,SSE,151,0.0,0.0,81,0.00,,---,0.01,VWS V14.01,2013-10-20 23:23:00,
2013-10-20 19:28:00,61.5,55.6,30.05,SSE,151,0.0,0.0,81,0.00,,---,0.01,VWS V14.01,2013-10-20 23:28:00,
2013-10-20 19:30:00,61.5,55.6,30.05,SSE,151,0.0,0.0,81,0.00,,---,0.01,VWS V14.01,2013-10-20 23:30:00,
2013-10-20 19:33:00,61.3,55.8,30.05,SSE,151,0.0,0.0,82,0.00,,---,0.01,VWS V14.01,2013-10-20 23:33:00,
2013-10-20 19:38:00,60.8,55.3,30.05,SSE,151,0.0,0.0,82,0.00,,---,0.01,VWS V14.01,2013-10-20 23:38:00,
2013-10-20 19:43:00,60.4,55.2,30.05,SSE,151,0.0,0.0,83,0.00,,---,0.01,VWS V14.01,2013-10-20 23:43:00,
2013-10-20 19:48:00,60.2,55.3,30.06,SSE,151,0.0,0.0,84,0.00,,---,0.01,VWS V14.01,2013-10-20 23:48:00,
2013-10-20 19:53:00,60.0,55.5,30.06,SSE,151,0.0,0.0,85,0.00,,---,0.01,VWS V14.01,2013-10-20 23:53:00,
2013-10-20 19:58:00,59.8,55.3,30.06,SSE,151,0.0,0.0,85,0.00,,---,0.01,VWS V14.01,2013-10-20 23:58:00,
2013-10-20 20:00:00,59.8,55.3,30.06,SSE,151,0.0,0.0,85,0.00,,---,0.01,VWS V14.01,2013-10-21 00:00:00,
2013-10-20 20:03:00,59.6,55.4,30.06,SSE,151,0.0,0.0,86,0.00,,---,0.01,VWS V14.01,2013-10-21 00:03:00,
2013-10-20 20:08:00,59.3,55.1,30.06,SSE,151,0.0,0.0,86,0.00,,---,0.01,VWS V14.01,2013-10-21 00:08:00,
2013-10-20 20:13:00,59.1,54.9,30.06,SSE,151,0.0,0.0,86,0.00,,---,0.01,VWS V14.01,2013-10-21 00:13:00,
2013-10-20 20:18:00,58.9,55.0,30.06,SSE,151,0.0,0.0,87,0.00,,---,0.01,VWS V14.01,2013-10-21 00:18:00,
2013-10-20 20:23:00,58.7,54.8,30.06,SSE,151,0.0,0.0,87,0.00,,---,0.01,VWS V14.01,2013-10-21 00:23:00,
2013-10-20 20:28:00,58.6,55.1,30.07,SSE,151,0.0,0.0,88,0.00,,---,0.01,VWS V14.01,2013-10-21 00:28:00,
2013-10-20 20:30:00,58.6,55.1,30.07,SSE,151,0.0,0.0,88,0.00,,---,0.01,VWS V14.01,2013-10-21 00:30:00,
2013-10-20 20:33:00,58.5,55.0,30.06,SSE,151,0.0,0.0,88,0.00,,---,0.01,VWS V14.01,2013-10-21 00:33:00,
2013-10-20 20:38:00,58.4,54.9,30.06,SSE,151,0.0,0.0,88,0.00,,---,0.01,VWS V14.01,2013-10-21 00:38:00,
2013-10-20 20:44:00,58.2,54.7,30.07,SSE,151,0.0,0.0,88,0.00,,---,0.01,VWS V14.01,2013-10-21 00:44:00,
2013-10-20 20:48:00,58.0,54.5,30.06,SSE,151,0.0,0.0,88,0.00,,---,0.01,VWS V14.01,2013-10-21 00:48:00,
2013-10-20 20:54:00,57.9,54.7,30.07,SSE,151,0.0,0.0,89,0.00,,---,0.01,VWS V14.01,2013-10-21 00:54:00,
2013-10-20 20:59:00,57.8,54.6,30.07,SSE,151,0.0,0.0,89,0.00,,---,0.01,VWS V14.01,2013-10-21 00:59:00,
2013-10-20 21:00:00,57.8,54.6,30.07,SSE,151,0.0,0.0,89,0.00,,---,0.01,VWS V14.01,2013-10-21 01:00:00,
2013-10-20 21:04:00,57.8,54.6,30.07,SSE,151,0.0,0.0,89,0.00,,---,0.01,VWS V14.01,2013-10-21 01:04:00,
2013-10-20 21:09:00,57.6,54.4,30.07,SSE,151,0.0,0.0,89,0.00,,---,0.01,VWS V14.01,2013-10-21 01:09:00,
2013-10-20 21:14:00,57.5,54.3,30.07,SSE,151,0.0,0.0,89,0.00,,---,0.01,VWS V14.01,2013-10-21 01:14:00,
2013-10-20 21:19:00,57.4,54.2,30.07,SSE,151,0.0,0.0,89,0.00,,---,0.01,VWS V14.01,2013-10-21 01:19:00,
2013-10-20 21:24:00,57.2,54.0,30.07,SSE,151,0.0,0.0,89,0.00,,---,0.01,VWS V14.01,2013-10-21 01:24:00,
2013-10-20 21:29:00,57.1,54.2,30.07,SSE,151,0.0,0.0,90,0.00,,---,0.01,VWS V14.01,2013-10-21 01:29:00,
2013-10-20 21:30:00,57.1,54.2,30.07,SSE,151,0.0,0.0,90,0.00,,---,0.01,VWS V14.01,2013-10-21 01:30:00,
2013-10-20 21:34:00,57.0,54.1,30.08,SSE,151,0.0,0.0,90,0.00,,---,0.01,VWS V14.01,2013-10-21 01:34:00,
2013-10-20 21:39:00,56.8,53.9,30.07,SSE,151,0.0,0.0,90,0.00,,---,0.01,VWS V14.01,2013-10-21 01:39:00,
2013-10-20 21:44:00,56.8,53.9,30.08,SSE,151,0.0,0.0,90,0.00,,---,0.01,VWS V14.01,2013-10-21 01:44:00,
2013-10-20 21:49:00,56.8,53.9,30.08,SSE,151,0.0,0.0,90,0.00,,---,0.01,VWS V14.01,2013-10-21 01:49:00,
2013-10-20 21:54:00,56.8,53.9,30.07,SSE,151,0.0,0.0,90,0.00,,---,0.01,VWS V14.01,2013-10-21 01:54:00,
2013-10-20 21:59:00,56.7,53.8,30.08,SSE,151,0.0,0.0,90,0.00,,---,0.01,VWS V14.01,2013-10-21 01:59:00,
2013-10-20 22:00:00,56.7,53.8,30.08,SSE,151,0.0,0.0,90,0.00,,---,0.01,VWS V14.01,2013-10-21 02:00:00,
2013-10-20 22:04:00,56.5,53.6,30.08,SSE,151,0.0,0.0,90,0.00,,---,0.01,VWS V14.01,2013-10-21 02:04:00,
2013-10-20 22:09:00,56.4,53.5,30.08,SSE,151,0.0,0.0,90,0.00,,---,0.01,VWS V14.01,2013-10-21 02:09:00,
2013-10-20 22:14:00,56.3,53.4,30.09,SSE,151,0.0,0.0,90,0.00,,---,0.01,VWS V14.01,2013-10-21 02:14:00,
2013-10-20 22:19:00,56.3,53.7,30.09,SSE,151,0.0,0.0,91,0.00,,---,0.01,VWS V14.01,2013-10-21 02:19:00,
2013-10-20 22:24:00,56.3,53.7,30.09,SSE,151,0.0,0.0,91,0.00,,---,0.01,VWS V14.01,2013-10-21 02:24:00,
2013-10-20 22:29:00,56.2,53.6,30.09,SSE,151,0.0,0.0,91,0.00,,---,0.01,VWS V14.01,2013-10-21 02:29:00,
2013-10-20 22:30:00,56.2,53.6,30.09,SSE,151,0.0,0.0,91,0.00,,---,0.01,VWS V14.01,2013-10-21 02:30:00,
2013-10-20 22:34:00,56.1,53.5,30.09,SSE,151,0.0,0.0,91,0.00,,---,0.01,VWS V14.01,2013-10-21 02:34:00,
2013-10-20 22:39:00,56.0,53.4,30.09,SSE,151,0.0,0.0,91,0.37,,---,0.38,VWS V14.01,2013-10-21 02:39:00,
2013-10-20 22:44:00,55.9,53.3,30.09,SSE,151,0.0,0.0,91,0.68,,---,0.69,VWS V14.01,2013-10-21 02:44:00,
2013-10-20 22:50:00,55.9,53.3,30.09,SSE,151,0.0,0.0,91,0.68,,---,0.69,VWS V14.01,2013-10-21 02:50:00,
2013-10-20 22:55:00,55.8,53.2,30.09,SSE,151,0.0,0.0,91,0.68,,---,0.69,VWS V14.01,2013-10-21 02:55:00,
2013-10-20 23:00:00,55.7,53.1,30.09,SSE,151,0.0,0.0,91,0.68,,---,0.69,VWS V14.01,2013-10-21 03:00:00,
2013-10-20 23:05:00,55.7,53.1,30.09,SSE,151,0.0,0.0,91,0.68,,---,0.69,VWS V14.01,2013-10-21 03:05:00,
2013-10-20 23:10:00,55.6,53.0,30.09,SSE,151,0.0,0.0,91,0.68,,---,0.69,VWS V14.01,2013-10-21 03:10:00,
2013-10-20 23:15:00,55.5,52.9,30.09,SSE,151,0.0,0.0,91,0.68,,---,0.69,VWS V14.01,2013-10-21 03:15:00,
2013-10-20 23:20:00,55.4,52.8,30.09,SSE,151,0.0,0.0,91,0.68,,---,0.69,VWS V14.01,2013-10-21 03:20:00,
2013-10-20 23:25:00,55.3,52.7,30.09,SSE,151,0.0,0.0,91,0.68,,---,0.69,VWS V14.01,2013-10-21 03:25:00,
2013-10-20 23:30:00,55.2,52.6,30.09,SSE,151,0.0,0.0,91,0.68,,---,0.69,VWS V14.01,2013-10-21 03:30:00,
2013-10-20 23:35:00,55.1,52.5,30.09,SSE,151,0.0,0.0,91,0.68,,---,0.69,VWS V14.01,2013-10-21 03:35:00,
2013-10-20 23:40:00,55.0,52.4,30.09,SSE,151,0.0,0.0,91,0.68,,---,0.69,VWS V14.01,2013-10-21 03:40:00,
2013-10-20 23:45:00,55.0,52.4,30.09,SSE,151,0.0,0.0,91,0.76,,---,0.77,VWS V14.01,2013-10-21 03:45:00,
2013-10-20 23:50:00,54.8,52.2,30.08,SSE,151,0.0,0.0,91,0.82,,---,0.83,VWS V14.01,2013-10-21 03:50:00,
2013-10-20 23:55:00,54.7,52.1,30.08,SSE,151,0.0,0.0,91,0.82,,---,0.83,VWS V14.01,2013-10-21 03:55:00,